GFSMA_500_spd_336.txt.gz
Wind_Speed
10 11 14 12 10 10 6 7 6 5 4 1 4 5 6 4 3 4 4 5 7 9 9 9 6 5 5 4 7 7 7 6 6 6 8 9 8 9 9 8 7 6 5
12 12 18 18 12 14 5 8 4 2 1 2 5 6 4 3 5 5 5 3 5 7 10 10 9 7 6 4 5 3 4 4 4 5 4 6 8 9 10 10 8 7 5
8 9 12 15 17 16 14 13 10 10 7 9 9 6 9 10 6 6 6 6 3 4 8 8 10 8 7 4 5 4 3 2 3 3 4 4 5 9 9 10 11 10 8
7 8 8 9 12 13 14 14 14 13 13 14 13 13 10 15 20 11 9 9 5 3 1 2 7 9 11 7 3 5 6 5 7 8 6 5 4 4 9 11 12 12 12
3 6 7 7 11 10 11 12 13 13 11 11 12 13 15 14 19 15 13 9 7 9 7 8 5 6 9 7 6 5 5 7 12 12 11 9 9 6 6 8 12 11 14
5 6 5 6 7 9 10 10 10 10 10 13 12 12 11 15 14 10 7 6 6 5 5 6 5 5 5 3 2 1 2 5 7 5 5 10 12 11 11 11 11 14 14
5 3 3 6 7 7 8 8 8 9 10 10 9 11 13 15 12 9 7 6 5 4 3 4 1 3 2 2 2 2 2 4 3 1 4 4 10 14 14 16 15 16 17
7 7 7 7 7 7 6 7 7 7 7 8 9 10 11 11 10 8 8 7 7 7 7 6 4 1 1 2 4 6 6 6 6 6 6 7 5 8 13 12 18 21 20
8 9 8 9 8 8 6 6 6 5 5 5 7 8 9 11 11 9 10 10 8 8 6 7 7 6 6 6 6 6 9 10 11 11 10 9 8 8 11 13 14 17 25
9 11 10 9 7 7 6 6 4 3 5 5 4 8 11 15 15 14 13 11 8 7 8 8 7 6 7 9 10 9 11 12 12 13 12 13 13 14 14 14 14 10 16
11 11 9 9 8 6 5 7 6 2 1 1 4 6 10 11 12 14 14 12 9 8 7 8 10 8 9 11 12 13 14 15 15 15 17 17 17 17 18 19 18 18 15
10 8 6 8 8 7 9 10 11 9 5 5 6 9 12 13 13 13 13 11 10 8 5 7 8 9 10 11 12 13 15 17 17 16 17 18 18 18 17 19 20 21 21
8 5 5 8 8 6 7 9 9 11 11 10 7 7 10 11 11 12 12 13 11 7 6 6 5 7 12 14 15 15 17 18 17 17 18 19 19 18 15 14 15 18 20
9 9 6 4 5 5 8 9 9 9 9 6 7 3 12 19 20 24 19 12 7 11 9 8 9 16 17 14 13 15 17 18 19 22 20 21 17 17 17 15 18 20 22
11 11 9 5 3 3 5 5 5 4 5 5 8 11 13 18 21 25 28 24 9 9 9 13 14 12 11 9 9 11 13 16 18 19 18 16 17 16 18 22 24 26 26
13 11 10 7 6 4 3 3 1 2 4 8 8 12 17 21 24 26 28 26 17 12 14 13 12 11 13 12 11 11 13 13 13 12 14 15 15 15 15 17 18 21 25
14 14 12 11 10 6 4 4 3 2 2 6 6 13 16 23 24 25 26 27 17 14 14 9 6 12 14 15 15 14 13 13 14 14 16 17 18 19 19 19 19 19 23
14 15 16 15 14 10 8 9 9 4 3 6 9 12 22 21 23 26 24 26 18 13 8 3 4 9 14 15 15 15 15 16 17 17 17 18 19 20 21 20 21 22 24
16 18 18 19 19 16 13 14 12 10 9 12 9 15 20 20 25 24 23 21 18 11 8 7 11 13 14 15 15 14 17 19 18 20 19 18 20 20 21 22 24 25 27
21 21 22 21 22 21 21 20 17 17 17 20 26 12 13 19 23 22 18 13 11 12 11 10 11 14 15 18 20 20 18 19 21 23 23 22 23 24 24 24 24 24 25
24 25 22 23 26 26 25 24 24 22 20 20 21 13 15 20 23 21 17 10 9 9 12 16 16 16 16 17 19 19 19 21 23 24 26 26 26 26 27 27 27 25 25
25 26 23 23 26 28 30 31 30 28 23 16 18 13 16 14 20 21 20 16 17 17 17 19 22 22 21 20 20 21 21 22 24 23 26 27 26 27 27 28 29 29 29
35 27 28 25 24 28 30 33 33 34 36 40 20 17 20 18 21 22 21 20 19 20 20 21 22 23 22 23 21 20 21 21 23 25 27 25 25 26 27 28 31 32 33
28 29 28 28 28 28 29 32 35 40 43 46 16 19 20 22 23 25 22 23 22 24 25 25 22 22 21 21 22 22 22 22 23 22 25 27 25 27 27 30 31 33 34
24 28 29 30 31 33 34 34 39 46 45 42 18 20 21 21 25 28 26 24 24 26 27 27 24 22 22 23 24 25 25 26 25 23 23 25 26 27 29 31 30 31 32
28 30 35 33 34 36 36 41 46 55 60 54 39 28 24 27 31 29 24 27 26 29 31 31 26 25 25 26 28 27 29 29 26 23 24 25 28 31 30 30 30 32 34

GFSMA_500_spd_339.txt.gz
Wind_Speed
13 14 21 23 19 10 5 7 6 4 3 4 9 7 8 7 7 9 9 3 2 7 5 3 4 5 3 4 3 5 4 3 3 5 7 7 9 9 9 7 6 5 3
10 10 16 17 19 15 11 8 4 2 6 7 10 7 8 8 5 8 7 3 2 3 6 8 6 5 4 3 4 2 2 1 2 3 5 6 8 9 10 9 8 7 7
6 8 10 13 15 16 15 14 11 11 12 12 10 11 13 14 13 5 5 5 3 1 2 8 8 8 5 3 4 4 2 1 2 3 4 5 7 10 11 11 11 9 8
3 6 8 12 11 15 15 14 14 15 14 15 13 14 15 13 13 11 7 3 6 4 3 3 7 10 8 8 4 3 5 4 7 9 8 8 7 6 10 11 10 11 11
3 5 7 10 10 12 12 12 13 12 11 11 13 15 12 10 11 10 7 5 5 5 5 3 1 8 10 8 4 4 5 6 10 15 12 12 11 11 9 9 12 11 13
2 4 5 7 7 8 8 7 9 10 9 9 9 11 12 10 8 7 5 4 3 1 3 3 1 3 4 3 2 3 4 4 7 2 6 9 14 15 13 12 11 14 14
2 4 6 6 6 7 6 6 7 6 6 7 9 10 13 11 8 6 5 4 2 2 3 3 2 1 3 3 3 3 5 5 4 2 4 6 6 13 14 15 18 17 18
5 6 6 5 7 6 5 5 5 5 5 7 12 12 15 12 11 9 8 6 5 3 2 3 3 4 3 5 5 6 7 8 8 7 8 10 9 8 13 14 15 16 19
5 6 6 6 7 6 4 3 4 4 5 8 11 12 13 13 12 12 12 11 7 5 4 4 4 5 7 8 9 10 10 10 10 11 12 12 13 13 12 12 14 18 16
5 6 5 5 5 4 3 1 2 2 4 6 7 9 9 8 8 9 10 10 10 9 6 7 8 8 8 8 10 11 11 12 13 14 14 15 16 17 18 19 18 18 18
9 6 5 4 4 3 1 2 0 3 3 6 4 5 5 6 7 8 9 10 9 9 5 5 6 9 9 9 9 10 12 12 12 14 15 16 17 17 18 20 20 21 21
13 7 4 4 2 4 4 3 5 8 7 7 5 3 6 8 8 9 9 9 9 8 8 7 6 7 9 11 12 14 15 16 16 17 16 16 17 18 21 20 21 21 22
13 9 5 3 2 2 2 4 6 10 10 6 3 1 5 7 10 12 10 11 10 8 8 9 9 10 15 16 17 19 19 20 21 22 21 21 22 22 22 23 21 20 22
12 10 9 4 0 1 2 5 6 6 6 4 1 3 7 10 13 12 11 10 9 10 8 12 14 11 16 21 24 24 21 20 22 22 22 24 24 22 20 21 24 23 24
12 11 11 7 4 4 4 4 5 6 4 4 4 4 4 11 15 18 16 13 6 13 19 15 15 15 16 19 21 16 13 16 18 18 19 20 18 20 22 23 24 26 29
13 15 14 12 10 9 7 6 6 5 7 5 6 7 8 15 17 21 20 17 15 12 19 23 19 17 14 16 17 18 16 18 17 17 19 21 21 22 23 23 24 26 28
17 17 17 17 14 13 12 10 9 8 10 10 12 14 11 14 18 20 21 20 19 13 11 18 23 16 9 11 14 16 17 19 19 19 20 22 24 24 24 24 25 26 27
18 20 20 19 18 18 17 15 14 12 14 15 17 19 21 24 18 21 20 17 15 12 10 3 5 6 6 9 13 15 17 18 18 18 20 20 22 23 25 25 27 28 28
18 19 19 20 22 23 23 23 21 16 18 20 23 25 28 19 12 18 19 15 12 11 8 8 7 5 7 10 13 16 17 18 20 20 21 21 22 23 24 24 25 25 25
16 18 17 17 20 25 25 28 29 22 20 23 26 32 31 22 24 16 16 13 12 12 8 9 12 11 10 12 15 18 21 22 22 22 23 23 23 24 26 27 27 27 27
19 20 20 19 20 23 27 31 33 30 27 25 26 30 33 29 24 18 17 15 16 16 17 13 14 15 15 14 15 17 19 22 23 23 23 23 25 26 28 29 30 30 30
23 25 25 28 28 27 30 32 32 33 33 31 29 32 41 37 33 29 19 18 20 21 23 21 22 22 21 22 21 19 19 19 20 22 22 24 25 26 26 27 29 30 31
25 20 20 24 22 23 27 30 31 33 34 34 34 37 48 49 35 29 29 21 22 25 23 25 24 25 24 23 24 23 22 21 21 24 24 21 23 22 24 26 27 28 30
35 26 22 22 21 20 23 23 28 31 28 31 35 38 50 32 27 30 29 24 24 28 26 26 25 27 27 26 25 25 25 25 26 26 25 23 20 21 22 24 25 26 27
33 31 24 25 24 27 25 27 31 33 35 33 37 43 47 48 52 37 28 30 26 28 27 27 27 26 28 28 26 25 26 26 27 27 25 24 21 19 23 26 26 28 30
31 33 29 31 32 33 34 34 36 38 37 37 33 40 44 34 34 25 28 32 31 29 27 28 28 27 29 29 29 28 29 30 30 30 28 25 25 25 28 29 30 32 34

GFSMA_500_spd_342.txt.gz
Wind_Speed
8 11 17 19 15 6 6 7 4 2 2 5 4 7 8 6 4 7 8 6 4 4 5 4 2 3 3 2 3 4 4 3 1 2 3 3 4 5 6 4 3 1 1
9 10 14 15 17 14 10 6 5 5 8 6 8 9 9 7 5 8 8 5 5 5 4 5 3 1 2 1 0 3 2 2 2 1 2 4 6 6 7 8 7 5 3
9 9 10 11 15 14 14 13 11 12 13 12 10 10 11 11 8 9 9 9 6 1 3 5 5 4 4 2 3 4 4 1 2 3 3 3 5 7 8 8 9 8 7
6 7 9 9 13 13 15 15 15 13 14 13 12 12 10 9 11 11 7 8 7 5 2 4 6 7 7 4 5 3 6 6 7 8 9 7 7 6 5 9 10 10 10
4 6 7 7 10 10 13 12 11 12 11 10 7 7 8 9 8 8 8 7 5 5 3 3 1 5 7 6 6 5 5 6 7 13 11 9 11 10 12 6 10 11 10
3 4 4 5 5 5 8 8 9 8 9 7 10 10 8 6 6 6 5 5 5 3 4 3 3 1 3 5 5 4 4 4 6 10 1 5 8 13 13 14 13 11 15
1 1 3 3 4 4 5 5 6 7 6 8 12 9 7 5 3 3 5 5 4 1 2 2 2 1 2 3 3 3 5 6 7 6 5 6 8 9 12 15 13 17 15
5 3 2 2 1 2 2 3 4 6 5 9 9 7 7 6 6 6 5 4 2 4 3 1 2 3 4 5 5 5 7 8 9 9 10 11 11 10 7 12 16 18 14
5 4 3 3 2 1 2 2 3 4 5 5 5 6 6 7 8 8 8 7 4 2 5 5 5 7 7 7 8 8 10 11 11 12 14 13 13 14 14 13 13 14 18
6 4 3 2 1 1 1 0 1 2 5 4 2 3 3 4 5 7 9 8 6 4 2 6 7 8 8 8 8 8 11 13 13 13 14 14 16 18 18 19 20 21 21
8 4 2 3 1 4 3 3 3 6 5 5 2 1 4 7 9 8 8 9 9 8 6 5 5 8 11 11 12 13 13 13 15 15 15 16 17 18 18 20 22 22 25
8 4 2 3 3 3 3 3 1 7 7 6 4 3 4 9 10 13 14 14 12 11 11 8 7 6 7 8 12 15 16 18 19 19 19 20 20 21 21 22 23 25 25
11 8 7 3 2 3 4 6 3 8 9 9 7 6 5 7 9 14 13 12 13 15 12 10 11 10 15 15 19 21 24 24 23 24 24 24 24 24 26 27 26 25 27
12 11 9 5 2 3 4 5 4 6 6 6 8 9 7 8 14 17 16 13 14 14 15 14 15 13 15 17 17 20 27 24 20 22 22 23 24 25 24 24 25 26 25
14 14 13 10 8 6 5 5 6 8 9 10 12 10 12 12 14 16 20 15 18 16 20 23 21 16 17 19 22 23 24 22 20 21 20 21 22 21 21 22 23 23 25
17 17 16 13 12 11 9 8 9 10 11 11 12 12 15 17 20 25 27 23 20 19 15 17 24 24 20 21 24 27 25 21 22 21 21 22 23 23 23 25 26 26 26
17 16 16 16 16 16 15 12 10 12 13 13 13 16 19 22 28 35 31 25 18 16 12 11 11 20 25 23 21 22 24 20 21 22 21 21 22 22 23 22 23 25 26
18 16 18 20 20 20 19 19 16 15 17 15 16 19 21 24 30 41 19 19 17 14 12 8 7 7 12 17 20 21 22 22 21 21 21 21 21 21 20 21 22 23 25
17 17 18 19 20 20 21 25 23 20 21 21 20 23 22 25 27 32 24 17 18 16 12 9 7 8 13 18 22 24 25 25 25 25 24 23 24 24 24 24 24 24 24
19 19 20 20 19 19 20 22 26 26 24 22 24 26 25 25 28 30 35 23 22 23 20 15 14 14 15 17 19 22 25 26 26 26 26 26 28 27 27 28 28 26 25
21 21 23 23 24 23 24 27 27 28 28 26 27 28 29 29 31 31 33 34 33 27 27 23 19 17 17 15 17 19 23 25 26 26 27 27 30 30 31 33 33 32 29
27 28 26 28 29 29 29 31 31 32 32 32 30 31 32 33 34 37 41 40 22 25 28 29 28 23 23 21 19 20 23 25 27 27 27 26 30 30 32 31 30 30 28
27 27 32 33 33 32 33 34 34 35 34 33 32 31 35 33 37 40 36 24 22 27 33 28 33 31 28 26 23 22 23 25 27 28 26 26 28 30 29 28 27 24 25
29 38 42 37 30 34 33 33 34 33 31 30 34 33 35 38 40 41 42 41 38 38 34 28 34 32 29 27 27 25 25 27 27 27 27 29 30 30 30 30 26 27 29
36 29 29 25 29 34 33 31 33 32 32 35 35 35 34 37 40 40 41 36 30 34 30 27 33 35 32 29 28 25 26 28 29 29 28 30 30 28 28 28 29 32 33
35 32 29 28 30 28 30 32 32 34 34 38 36 31 33 37 40 39 43 34 17 24 28 32 33 32 33 31 28 26 26 28 30 29 30 31 29 26 28 30 28 29 33

GFSMA_500_spd_345.txt.gz
Wind_Speed
8 10 13 14 13 7 7 8 5 4 5 6 6 6 6 5 7 5 6 9 8 7 5 4 4 4 4 5 6 6 5 3 1 1 2 3 3 4 4 2 2 3 4
8 10 12 15 14 11 9 7 6 7 5 6 5 6 6 5 6 8 7 5 2 6 4 5 4 1 2 2 3 4 3 3 2 2 2 4 5 6 5 5 5 4 4
9 11 10 11 11 12 13 13 11 9 7 6 5 6 7 7 8 9 9 8 4 4 2 3 8 4 3 2 1 1 1 1 1 2 3 4 4 5 7 7 7 7 6
8 9 8 8 8 11 13 13 11 10 9 7 6 8 8 10 8 10 7 8 6 5 4 5 7 5 7 3 3 3 5 4 5 7 9 9 8 9 6 7 8 8 9
7 6 4 5 6 7 8 8 9 7 6 3 5 5 6 6 6 6 7 5 6 5 3 2 6 6 6 6 6 7 5 3 5 10 11 9 9 13 12 7 8 10 12
6 4 2 2 2 3 4 7 5 5 3 3 6 6 5 5 6 6 4 3 2 3 2 1 1 4 6 5 4 4 4 3 4 7 7 2 5 6 10 10 10 14 16
3 2 2 1 1 2 1 4 4 2 2 5 4 4 4 4 5 5 3 3 2 2 2 2 2 2 3 3 4 4 5 6 6 6 6 5 6 7 7 10 15 17 15
2 1 1 1 2 2 2 1 1 1 3 3 2 3 5 5 6 7 6 4 4 5 5 4 4 5 5 5 6 6 7 8 9 9 9 10 11 10 10 9 10 14 16
2 1 0 1 3 5 5 3 2 1 3 2 2 3 4 5 6 6 7 8 6 5 8 8 8 8 8 7 8 9 11 11 11 12 12 11 12 12 14 13 14 13 15
3 3 0 2 4 4 4 5 4 2 3 3 3 3 4 8 10 12 13 12 10 9 7 9 10 9 9 10 10 10 10 11 12 13 14 14 15 16 17 18 18 18 19
6 4 1 1 2 4 3 5 5 4 6 6 6 6 9 12 12 17 21 20 16 13 9 8 9 9 8 9 8 9 9 12 14 16 18 19 19 20 19 18 19 19 22
8 5 1 3 3 4 4 6 6 6 7 7 6 8 12 16 17 19 21 20 20 19 15 12 11 11 10 9 4 7 12 12 18 21 23 23 24 24 23 23 24 24 25
10 9 6 5 3 3 4 6 5 5 6 5 8 10 14 14 16 18 22 26 25 25 22 16 17 15 12 11 13 16 15 15 18 24 22 23 24 23 23 25 27 27 27
12 12 9 7 4 4 5 4 5 3 3 5 8 11 9 14 14 17 24 26 31 28 25 21 20 21 17 16 15 16 17 19 21 22 24 22 23 24 24 24 22 21 22
14 14 15 13 10 8 7 5 4 4 5 6 7 9 10 11 16 20 28 32 34 23 25 23 23 26 23 18 19 18 23 27 25 26 25 24 26 26 26 26 26 25 27
17 17 16 16 15 14 11 9 7 4 6 6 9 12 13 14 18 22 27 31 14 21 21 22 18 20 25 24 23 21 23 26 27 27 26 24 25 27 26 26 26 27 28
18 19 18 18 20 19 17 13 11 10 9 10 11 12 14 16 20 21 22 24 17 19 21 21 18 17 13 21 24 23 23 22 24 25 25 24 24 25 25 25 26 27 29
19 20 21 21 23 23 22 20 17 16 17 15 14 15 16 17 20 18 20 24 17 14 19 22 21 19 17 14 15 16 17 20 23 25 26 25 25 26 26 27 27 28 29
20 22 25 24 24 25 24 23 22 21 21 21 21 21 20 19 21 21 20 23 21 17 22 27 21 20 21 23 22 22 20 20 22 25 28 28 28 28 28 28 29 30 29
22 23 26 27 27 27 26 26 26 25 25 25 26 25 27 26 24 26 26 27 26 32 30 25 22 21 21 24 26 26 24 21 23 24 25 27 27 27 29 30 31 31 31
26 26 27 29 32 31 30 30 30 28 28 27 26 28 30 29 29 28 29 33 29 32 27 20 20 25 23 23 25 27 27 24 23 24 25 25 26 29 32 32 31 32 33
29 31 32 32 33 35 36 36 35 35 34 30 30 30 32 34 34 34 33 26 32 33 21 27 26 28 30 25 25 28 29 28 25 26 24 25 28 30 32 31 32 33 32
37 37 34 33 35 39 44 45 41 38 39 37 33 33 35 36 35 37 37 30 35 36 29 27 36 32 30 24 24 29 31 31 28 26 25 27 28 30 31 31 31 32 32
34 35 34 31 29 36 41 50 44 41 42 42 38 36 36 34 35 38 39 36 36 36 37 36 32 32 29 22 23 25 30 30 29 27 27 28 28 29 31 30 31 33 34
33 34 36 36 37 40 38 26 37 42 43 40 39 33 35 36 36 37 39 38 38 37 39 29 24 20 21 24 22 23 27 28 27 27 27 27 28 30 31 29 30 33 30
39 40 38 39 40 40 38 30 33 29 37 36 32 30 33 37 38 39 40 42 40 39 35 18 19 22 23 23 21 22 25 24 25 27 27 28 28 29 30 32 32 32 33

GFSMA_500_spd_348.txt.gz
Wind_Speed
7 9 13 15 14 13 9 8 7 4 7 5 5 5 4 5 5 6 8 11 8 7 7 8 7 5 4 5 5 5 4 2 2 3 4 3 3 3 3 3 2 2 2
6 5 11 14 14 10 8 7 6 6 5 6 5 6 5 4 4 7 8 7 5 8 7 9 11 7 4 2 2 3 2 2 1 1 3 5 5 6 5 5 5 5 4
5 7 10 13 12 10 9 8 6 7 5 4 5 5 5 6 5 6 7 7 6 7 12 13 11 7 3 2 1 2 0 1 3 5 9 6 4 9 9 8 6 6 7
4 7 8 10 10 9 8 7 7 6 4 4 3 5 7 8 7 7 5 4 3 5 8 7 5 2 2 2 3 3 3 5 6 8 11 9 12 14 8 7 8 7 7
3 4 7 7 7 5 4 4 5 4 2 4 4 5 5 6 5 4 3 2 0 1 2 1 3 6 3 5 5 5 4 5 6 8 10 8 8 10 12 13 9 10 11
2 2 3 3 5 3 2 2 3 2 4 4 4 5 4 5 6 5 4 3 2 4 4 3 2 2 6 5 5 4 2 4 5 6 6 3 4 5 9 7 11 13 18
2 1 2 3 3 2 2 2 1 2 2 2 5 7 9 10 11 13 11 9 7 5 6 6 5 4 6 6 7 4 5 6 7 8 7 7 7 9 10 11 12 13 16
2 1 1 3 4 3 2 2 3 2 0 1 5 7 10 14 16 16 16 15 13 11 9 10 9 8 8 8 8 8 9 8 8 8 8 9 9 9 10 11 14 14 15
2 0 1 3 4 5 4 2 3 3 2 1 4 7 11 14 15 17 17 17 15 13 12 11 12 12 12 11 13 11 11 10 11 11 11 11 10 12 13 14 15 16 17
3 3 1 1 3 3 3 4 6 4 3 2 4 9 13 13 16 17 19 18 17 13 13 12 11 13 14 13 13 12 12 11 10 11 12 14 14 14 14 15 16 17 19
6 5 3 1 0 3 1 3 5 3 3 3 5 6 8 11 13 15 18 18 18 19 16 12 12 11 11 11 11 11 10 9 8 9 12 16 18 19 21 22 22 23 24
8 9 5 3 3 4 4 4 5 4 2 1 2 5 8 7 10 9 14 18 20 22 18 17 13 13 14 13 13 10 11 13 12 14 14 18 20 21 22 24 23 23 23
11 12 7 7 5 5 6 6 4 2 1 1 2 3 7 8 10 12 16 22 29 27 16 16 17 17 17 15 15 15 17 17 16 17 17 21 24 24 24 24 24 23 22
13 12 12 10 6 5 5 6 4 1 2 3 2 4 4 5 10 14 20 26 30 19 15 16 19 20 19 18 17 16 15 18 22 25 24 23 24 26 25 24 25 26 25
14 13 14 14 11 11 11 7 5 4 4 6 6 7 7 9 14 17 19 21 17 18 17 13 16 20 19 16 19 19 19 19 23 23 23 23 26 25 25 26 26 27 27
15 15 16 17 17 16 16 13 9 7 8 9 10 10 12 13 16 16 18 18 19 20 17 15 14 17 18 12 13 20 22 24 24 23 23 23 25 25 25 26 27 28 28
19 16 16 19 20 19 19 19 16 14 13 13 14 16 15 15 18 17 18 20 23 24 17 17 21 21 17 11 9 11 14 17 20 22 23 24 25 26 26 26 26 27 28
20 19 20 21 23 23 22 22 23 21 20 19 18 18 18 18 21 21 21 22 25 23 15 26 31 24 22 19 13 13 16 18 22 24 24 25 26 27 27 27 28 29 29
21 20 21 23 26 27 26 26 25 26 27 26 24 23 23 25 27 26 27 25 27 29 26 25 30 25 21 21 23 20 18 19 22 25 26 27 26 27 28 27 28 29 30
22 23 23 23 26 28 28 29 30 30 30 31 30 29 29 30 31 31 30 31 31 35 31 28 30 18 17 20 22 24 25 23 23 24 26 27 25 25 25 26 28 31 32
25 26 28 29 28 27 30 30 31 33 33 33 32 32 32 34 35 34 32 29 35 38 35 29 30 26 26 26 30 26 25 26 24 23 24 24 25 25 26 29 31 33 33
28 30 31 32 34 34 33 33 34 34 36 37 36 38 37 36 38 41 36 35 33 34 35 28 29 32 31 32 38 31 25 26 23 24 24 24 24 26 29 30 32 33 33
32 30 34 36 36 41 39 38 36 39 39 40 42 42 43 41 38 41 41 38 35 33 38 36 35 31 32 38 39 30 26 22 23 22 23 23 25 28 30 30 31 31 30
41 34 30 28 33 32 38 32 33 39 38 40 47 50 45 45 41 38 40 34 38 34 35 33 29 34 29 30 32 17 19 19 18 18 21 23 25 28 29 30 30 29 29
42 39 38 36 36 35 32 35 40 43 42 39 36 41 44 41 41 37 38 36 39 35 37 38 33 35 30 25 21 17 16 16 16 16 20 23 27 29 29 30 28 30 29
40 41 40 40 39 37 35 37 39 40 39 38 38 39 41 39 35 33 38 35 39 39 38 40 40 32 31 29 19 14 15 16 16 16 21 24 28 28 28 27 30 28 32